Location: Dziadowski
(50.3833°N, 20.0333°E)
Time: 21:57:51
(UTC+00:00)

Cosmos 304 Rocket - Pass Details

Date: 18 January 2026
Orbit: 669 x 676 km, 74.0° (Epoch: 17 February)

Event Time Altitude Azimuth Distance (km) Brightness Sun altitude
Rises 05:26:28 0° 199° (SSW) 3,016 7.1 -10.1°
Reaches altitude 10° 05:28:45 10° 199° (SSW) 2,107 6.3 -9.8°
Maximum altitude 05:33:30 82° 113° (ESE) 690 3.9 -9.1°
Drops below altitude 10° 05:38:17 10° 26° (NNE) 2,122 6.4 -8.4°
Sets 05:40:35 0° 25° (NNE) 3,041 7.1 -8.0°
